Saint Bonnet de Bellac- Haute Vienne - France
Donnes mto: vendredi, 28/10/2011
Date Horaire Temp. E. Hum. E. P.atmo. Pluie Vent Direction Direction Ensoleilleme Solaire P. de rose Temp au vent Rafales
28/10/2011 00:00 15,1 C 86 % 1011,4 hPa 0,0 mm 2,9 km/h (1 Bft) S 180 0 min 0 W/m 12,8 C 15,1 C 2,9 km/h (1 Bft)
28/10/2011 00:05 15,1 C 86 % 1011,5 hPa 0,0 mm 9,7 km/h (2 Bft) S-SO 202 0 min 0 W/m 12,8 C 15,1 C 17,6 km/h (3 Bft)
28/10/2011 00:10 15,1 C 85 % 1011,6 hPa 0,0 mm 13,3 km/h (3 Bft) S-SE 157 0 min 0 W/m 12,6 C 15,1 C 15,8 km/h (3 Bft)
28/10/2011 00:15 15,2 C 85 % 1011,7 hPa 0,0 mm 5,0 km/h (1 Bft) S-SO 202 0 min 0 W/m 12,7 C 15,2 C 9,4 km/h (2 Bft)
28/10/2011 00:20 15,1 C 85 % 1011,7 hPa 0,0 mm 7,6 km/h (2 Bft) SO 225 0 min 0 W/m 12,6 C 15,1 C 11,5 km/h (2 Bft)
28/10/2011 00:25 15,1 C 85 % 1011,9 hPa 0,0 mm 11,5 km/h (2 Bft) S-SE 157 0 min 0 W/m 12,6 C 15,1 C 16,2 km/h (3 Bft)
28/10/2011 00:30 15,1 C 85 % 1011,9 hPa 0,0 mm 6,1 km/h (2 Bft) S-SO 202 0 min 0 W/m 12,6 C 15,1 C 6,1 km/h (2 Bft)
28/10/2011 00:35 15,1 C 85 % 1011,9 hPa 0,0 mm 4,7 km/h (1 Bft) SE 135 0 min 0 W/m 12,6 C 15,1 C 10,4 km/h (2 Bft)
28/10/2011 00:40 15,1 C 85 % 1012,1 hPa 0,0 mm 8,3 km/h (2 Bft) S 180 0 min 0 W/m 12,6 C 15,1 C 17,6 km/h (3 Bft)
28/10/2011 00:45 15,1 C 85 % 1012,0 hPa 0,0 mm 10,1 km/h (2 Bft) S-SO 202 0 min 0 W/m 12,6 C 15,1 C 12,6 km/h (3 Bft)
28/10/2011 00:50 14,9 C 85 % 1012,1 hPa 0,0 mm 4,0 km/h (1 Bft) S 180 0 min 0 W/m 12,4 C 14,9 C 8,3 km/h (2 Bft)
28/10/2011 00:55 14,9 C 85 % 1012,1 hPa 0,0 mm 4,3 km/h (1 Bft) S-SE 157 0 min 0 W/m 12,4 C 14,9 C 9,4 km/h (2 Bft)
28/10/2011 01:00 14,9 C 85 % 1012,3 hPa 0,0 mm 5,0 km/h (1 Bft) S 180 0 min 0 W/m 12,4 C 14,9 C 9,7 km/h (2 Bft)
28/10/2011 01:05 14,9 C 85 % 1012,3 hPa 0,0 mm 5,0 km/h (1 Bft) S-SO 202 0 min 0 W/m 12,4 C 14,9 C 9,0 km/h (2 Bft)
28/10/2011 01:10 14,9 C 85 % 1012,3 hPa 0,0 mm 7,6 km/h (2 Bft) S 180 0 min 0 W/m 12,4 C 14,9 C 15,5 km/h (3 Bft)
28/10/2011 01:15 14,9 C 85 % 1012,5 hPa 0,0 mm 6,8 km/h (2 Bft) S 180 0 min 0 W/m 12,4 C 14,9 C 6,8 km/h (2 Bft)
28/10/2011 01:20 14,8 C 85 % 1012,5 hPa 0,0 mm 10,8 km/h (2 Bft) S 180 0 min 0 W/m 12,3 C 14,8 C 14,4 km/h (3 Bft)
28/10/2011 01:25 14,8 C 85 % 1012,6 hPa 0,0 mm 4,7 km/h (1 Bft) S 180 0 min 0 W/m 12,3 C 14,8 C 7,2 km/h (2 Bft)
28/10/2011 01:30 14,8 C 85 % 1012,6 hPa 0,0 mm 10,4 km/h (2 Bft) S-SO 202 0 min 0 W/m 12,3 C 14,8 C 15,1 km/h (3 Bft)
28/10/2011 01:35 14,8 C 85 % 1012,8 hPa 0,0 mm 10,8 km/h (2 Bft) S-SE 157 0 min 0 W/m 12,3 C 14,8 C 18,4 km/h (3 Bft)
28/10/2011 01:40 14,6 C 85 % 1012,8 hPa 0,0 mm 9,7 km/h (2 Bft) S 180 0 min 0 W/m 12,1 C 14,6 C 14,4 km/h (3 Bft)
28/10/2011 01:45 14,6 C 86 % 1012,8 hPa 0,0 mm 13,3 km/h (3 Bft) S 180 0 min 0 W/m 12,3 C 14,6 C 14,8 km/h (3 Bft)
28/10/2011 01:50 14,5 C 86 % 1012,9 hPa 0,0 mm 11,2 km/h (2 Bft) S-SE 157 0 min 0 W/m 12,2 C 14,5 C 13,0 km/h (3 Bft)
28/10/2011 01:55 14,4 C 86 % 1012,9 hPa 0,0 mm 6,5 km/h (2 Bft) S-SE 157 0 min 0 W/m 12,1 C 14,4 C 12,6 km/h (3 Bft)
28/10/2011 02:00 14,3 C 86 % 1013,1 hPa 0,0 mm 3,6 km/h (1 Bft) S-SE 157 0 min 0 W/m 12,0 C 14,3 C 3,6 km/h (1 Bft)
28/10/2011 02:05 14,3 C 86 % 1013,2 hPa 0,0 mm 5,8 km/h (2 Bft) S 180 0 min 0 W/m 12,0 C 14,3 C 8,3 km/h (2 Bft)
28/10/2011 02:10 14,2 C 86 % 1013,2 hPa 0,0 mm 11,2 km/h (2 Bft) S 180 0 min 0 W/m 11,9 C 14,2 C 13,7 km/h (3 Bft)
28/10/2011 02:15 14,2 C 87 % 1013,3 hPa 0,0 mm 6,1 km/h (2 Bft) S-SO 202 0 min 0 W/m 12,1 C 14,2 C 10,1 km/h (2 Bft)
28/10/2011 02:20 14,1 C 87 % 1013,4 hPa 0,0 mm 5,8 km/h (2 Bft) S-SE 157 0 min 0 W/m 12,0 C 14,1 C 8,3 km/h (2 Bft)
28/10/2011 02:25 14,1 C 87 % 1013,4 hPa 0,3 mm 3,6 km/h (1 Bft) S-SO 202 0 min 0 W/m 12,0 C 14,1 C 9,7 km/h (2 Bft)
28/10/2011 02:30 13,9 C 88 % 1013,5 hPa 0,3 mm 4,0 km/h (1 Bft) S 180 0 min 0 W/m 11,9 C 13,9 C 7,6 km/h (2 Bft)
28/10/2011 02:35 13,8 C 88 % 1013,5 hPa 0,3 mm 5,8 km/h (2 Bft) S-SE 157 0 min 0 W/m 11,8 C 13,8 C 8,3 km/h (2 Bft)
28/10/2011 02:40 13,8 C 88 % 1013,5 hPa 0,3 mm 6,1 km/h (2 Bft) E-SE 112 0 min 0 W/m 11,8 C 13,8 C 11,2 km/h (2 Bft)
28/10/2011 02:45 13,7 C 89 % 1013,6 hPa 0,0 mm 2,5 km/h (1 Bft) S 180 0 min 0 W/m 11,9 C 13,7 C 4,0 km/h (1 Bft)
28/10/2011 02:50 13,6 C 89 % 1013,7 hPa 0,0 mm 2,2 km/h (1 Bft) S-SO 202 0 min 0 W/m 11,8 C 13,6 C 3,6 km/h (1 Bft)
28/10/2011 02:55 13,6 C 89 % 1013,7 hPa 0,0 mm 0,7 km/h (0 Bft) S 180 0 min 0 W/m 11,8 C 13,6 C 6,5 km/h (2 Bft)
28/10/2011 03:02 13,5 C 89 % 1013,8 hPa 0,0 mm 1,1 km/h (1 Bft) SE 135 0 min 0 W/m 11,7 C 13,5 C 4,0 km/h (1 Bft)
28/10/2011 03:05 13,4 C 90 % 1013,9 hPa 0,0 mm 1,4 km/h (1 Bft) S-SE 157 0 min 0 W/m 11,8 C 13,4 C 5,8 km/h (2 Bft)
28/10/2011 03:10 13,4 C 90 % 1013,8 hPa 0,0 mm 0,0 km/h (0 Bft) S-SE 157 0 min 0 W/m 11,8 C 13,4 C 0,0 km/h (0 Bft)
28/10/2011 03:15 13,4 C 90 % 1013,9 hPa 0,0 mm 0,0 km/h (0 Bft) S-SE 157 0 min 0 W/m 11,8 C 13,4 C 0,0 km/h (0 Bft)
28/10/2011 03:20 13,4 C 90 % 1013,9 hPa 0,0 mm 0,0 km/h (0 Bft) S 180 0 min 0 W/m 11,8 C 13,4 C 0,0 km/h (0 Bft)
28/10/2011 03:25 13,4 C 90 % 1014,1 hPa 0,0 mm 1,8 km/h (1 Bft) S 180 0 min 0 W/m 11,8 C 13,4 C 6,1 km/h (2 Bft)
28/10/2011 03:30 13,4 C 90 % 1014,0 hPa 0,0 mm 0,4 km/h (0 Bft) S-SE 157 0 min 0 W/m 11,8 C 13,4 C 0,4 km/h (0 Bft)
28/10/2011 03:35 13,4 C 90 % 1014,1 hPa 0,0 mm 1,1 km/h (1 Bft) S-SE 157 0 min 0 W/m 11,8 C 13,4 C 4,0 km/h (1 Bft)
28/10/2011 03:40 13,4 C 90 % 1014,3 hPa 0,0 mm 0,0 km/h (0 Bft) S-SE 157 0 min 0 W/m 11,8 C 13,4 C 1,4 km/h (1 Bft)
28/10/2011 03:45 13,4 C 90 % 1014,3 hPa 0,0 mm 0,0 km/h (0 Bft) S-SE 157 0 min 0 W/m 11,8 C 13,4 C 0,0 km/h (0 Bft)
28/10/2011 03:50 13,4 C 90 % 1014,3 hPa 0,0 mm 1,1 km/h (1 Bft) S-SE 157 0 min 0 W/m 11,8 C 13,4 C 4,3 km/h (1 Bft)
28/10/2011 03:55 13,4 C 90 % 1014,4 hPa 0,0 mm 1,1 km/h (1 Bft) N 360 0 min 0 W/m 11,8 C 13,4 C 1,1 km/h (1 Bft)
28/10/2011 04:00 13,4 C 90 % 1014,3 hPa 0,0 mm 0,0 km/h (0 Bft) S-SE 157 0 min 0 W/m 11,8 C 13,4 C 0,0 km/h (0 Bft)
28/10/2011 04:05 13,4 C 90 % 1014,3 hPa 0,0 mm 0,0 km/h (0 Bft) S-SE 157 0 min 0 W/m 11,8 C 13,4 C 0,0 km/h (0 Bft)
28/10/2011 04:10 13,4 C 90 % 1014,5 hPa 0,0 mm 1,4 km/h (1 Bft) S-SE 157 0 min 0 W/m 11,8 C 13,4 C 3,6 km/h (1 Bft)
28/10/2011 04:15 13,4 C 90 % 1014,6 hPa 0,0 mm 1,1 km/h (1 Bft) S-SE 157 0 min 0 W/m 11,8 C 13,4 C 1,1 km/h (1 Bft)
28/10/2011 04:20 13,4 C 90 % 1014,6 hPa 0,0 mm 1,4 km/h (1 Bft) S-SE 157 0 min 0 W/m 11,8 C 13,4 C 3,2 km/h (1 Bft)
28/10/2011 04:25 13,4 C 90 % 1014,7 hPa 0,0 mm 0,0 km/h (0 Bft) S-SE 157 0 min 0 W/m 11,8 C 13,4 C 0,0 km/h (0 Bft)
28/10/2011 04:30 13,4 C 90 % 1014,7 hPa 0,0 mm 0,0 km/h (0 Bft) S-SE 157 0 min 0 W/m 11,8 C 13,4 C 0,0 km/h (0 Bft)
28/10/2011 04:35 13,4 C 89 % 1014,6 hPa 0,0 mm 0,0 km/h (0 Bft) S-SE 157 0 min 0 W/m 11,6 C 13,4 C 2,9 km/h (1 Bft)
28/10/2011 04:40 13,4 C 89 % 1014,6 hPa 0,0 mm 0,0 km/h (0 Bft) S-SE 157 0 min 0 W/m 11,6 C 13,4 C 0,0 km/h (0 Bft)
28/10/2011 04:45 13,4 C 89 % 1014,5 hPa 0,0 mm 0,0 km/h (0 Bft) S-SE 157 0 min 0 W/m 11,6 C 13,4 C 0,0 km/h (0 Bft)
28/10/2011 04:50 13,4 C 89 % 1014,5 hPa 0,0 mm 0,7 km/h (0 Bft) S-SE 157 0 min 0 W/m 11,6 C 13,4 C 3,6 km/h (1 Bft)
28/10/2011 04:55 13,4 C 89 % 1014,6 hPa 0,0 mm 2,5 km/h (1 Bft) S-SE 157 0 min 0 W/m 11,6 C 13,4 C 4,3 km/h (1 Bft)
28/10/2011 05:00 13,4 C 89 % 1014,7 hPa 0,0 mm 0,4 km/h (0 Bft) S-SE 157 0 min 0 W/m 11,6 C 13,4 C 3,6 km/h (1 Bft)
28/10/2011 05:05 13,4 C 89 % 1014,7 hPa 0,0 mm 0,0 km/h (0 Bft) S-SE 157 0 min 0 W/m 11,6 C 13,4 C 0,0 km/h (0 Bft)
28/10/2011 05:10 13,4 C 89 % 1014,7 hPa 0,0 mm 0,0 km/h (0 Bft) S-SE 157 0 min 0 W/m 11,6 C 13,4 C 0,0 km/h (0 Bft)
28/10/2011 05:15 13,3 C 89 % 1014,8 hPa 0,0 mm 0,0 km/h (0 Bft) S-SE 157 0 min 0 W/m 11,5 C 13,3 C 0,0 km/h (0 Bft)
28/10/2011 05:20 13,3 C 89 % 1014,9 hPa 0,0 mm 1,4 km/h (1 Bft) SE 135 0 min 0 W/m 11,5 C 13,3 C 3,6 km/h (1 Bft)
28/10/2011 05:25 13,3 C 89 % 1014,9 hPa 0,0 mm 3,2 km/h (1 Bft) SE 135 0 min 0 W/m 11,5 C 13,3 C 4,3 km/h (1 Bft)
28/10/2011 05:30 13,4 C 89 % 1015,0 hPa 0,0 mm 0,0 km/h (0 Bft) SE 135 0 min 0 W/m 11,6 C 13,4 C 0,0 km/h (0 Bft)
28/10/2011 05:35 13,3 C 88 % 1015,1 hPa 0,0 mm 0,4 km/h (0 Bft) E-SE 112 0 min 0 W/m 11,4 C 13,3 C 0,4 km/h (0 Bft)
28/10/2011 05:40 13,4 C 88 % 1015,2 hPa 0,0 mm 4,7 km/h (1 Bft) SE 135 0 min 0 W/m 11,5 C 13,4 C 4,7 km/h (1 Bft)
28/10/2011 05:45 13,4 C 88 % 1015,3 hPa 0,0 mm 3,2 km/h (1 Bft) SE 135 0 min 0 W/m 11,5 C 13,4 C 4,3 km/h (1 Bft)
28/10/2011 05:50 13,4 C 88 % 1015,4 hPa 0,0 mm 5,8 km/h (2 Bft) E-SE 112 0 min 0 W/m 11,5 C 13,4 C 7,2 km/h (2 Bft)
28/10/2011 05:55 13,4 C 88 % 1015,5 hPa 0,0 mm 1,4 km/h (1 Bft) SE 135 0 min 0 W/m 11,5 C 13,4 C 1,4 km/h (1 Bft)
28/10/2011 06:00 13,4 C 88 % 1015,5 hPa 0,0 mm 0,7 km/h (0 Bft) SE 135 0 min 0 W/m 11,5 C 13,4 C 3,6 km/h (1 Bft)
28/10/2011 06:05 13,3 C 88 % 1015,6 hPa 0,0 mm 1,1 km/h (1 Bft) SE 135 0 min 0 W/m 11,4 C 13,3 C 3,6 km/h (1 Bft)
28/10/2011 06:10 13,3 C 88 % 1015,7 hPa 0,0 mm 2,5 km/h (1 Bft) SE 135 0 min 0 W/m 11,4 C 13,3 C 3,6 km/h (1 Bft)
28/10/2011 06:15 13,3 C 88 % 1015,7 hPa 0,0 mm 2,9 km/h (1 Bft) SE 135 0 min 0 W/m 11,4 C 13,3 C 3,2 km/h (1 Bft)
28/10/2011 06:20 13,3 C 89 % 1015,7 hPa 0,3 mm 0,7 km/h (0 Bft) S-SE 157 0 min 0 W/m 11,5 C 13,3 C 4,0 km/h (1 Bft)
28/10/2011 06:25 13,2 C 89 % 1015,8 hPa 0,0 mm 0,7 km/h (0 Bft) S-SE 157 0 min 0 W/m 11,4 C 13,2 C 0,7 km/h (0 Bft)
28/10/2011 06:30 13,1 C 89 % 1015,9 hPa 0,0 mm 2,5 km/h (1 Bft) S-SE 157 0 min 0 W/m 11,3 C 13,1 C 4,0 km/h (1 Bft)
28/10/2011 06:35 13,1 C 89 % 1016,0 hPa 0,3 mm 0,7 km/h (0 Bft) SE 135 0 min 0 W/m 11,3 C 13,1 C 0,7 km/h (0 Bft)
28/10/2011 06:40 13,1 C 90 % 1016,0 hPa 0,0 mm 0,7 km/h (0 Bft) S-SE 157 0 min 0 W/m 11,5 C 13,1 C 3,6 km/h (1 Bft)
28/10/2011 06:45 12,9 C 90 % 1016,1 hPa 0,0 mm 3,2 km/h (1 Bft) S-SE 157 0 min 0 W/m 11,3 C 12,9 C 3,6 km/h (1 Bft)
28/10/2011 06:50 12,9 C 90 % 1016,1 hPa 0,0 mm 0,0 km/h (0 Bft) S-SE 157 0 min 0 W/m 11,3 C 12,9 C 0,0 km/h (0 Bft)
28/10/2011 06:55 12,9 C 90 % 1016,1 hPa 0,0 mm 0,4 km/h (0 Bft) S-SE 157 0 min 0 W/m 11,3 C 12,9 C 3,2 km/h (1 Bft)
28/10/2011 07:00 12,8 C 90 % 1016,2 hPa 0,3 mm 3,6 km/h (1 Bft) S-SE 157 0 min 0 W/m 11,2 C 12,8 C 4,3 km/h (1 Bft)
28/10/2011 07:05 12,8 C 90 % 1016,2 hPa 0,0 mm 1,1 km/h (1 Bft) S-SE 157 0 min 0 W/m 11,2 C 12,8 C 1,4 km/h (1 Bft)
28/10/2011 07:10 12,8 C 90 % 1016,2 hPa 0,0 mm 0,7 km/h (0 Bft) S-SE 157 0 min 0 W/m 11,2 C 12,8 C 4,0 km/h (1 Bft)
28/10/2011 07:15 12,8 C 90 % 1016,3 hPa 0,0 mm 1,8 km/h (1 Bft) SE 135 0 min 0 W/m 11,2 C 12,8 C 3,6 km/h (1 Bft)
28/10/2011 07:20 12,8 C 90 % 1016,3 hPa 0,0 mm 2,9 km/h (1 Bft) SE 135 0 min 0 W/m 11,2 C 12,8 C 4,3 km/h (1 Bft)
28/10/2011 07:25 12,8 C 91 % 1016,4 hPa 0,0 mm 1,4 km/h (1 Bft) SE 135 0 min 0 W/m 11,4 C 12,8 C 1,4 km/h (1 Bft)
28/10/2011 07:30 12,8 C 91 % 1016,3 hPa 0,0 mm 0,7 km/h (0 Bft) S-SE 157 0 min 0 W/m 11,4 C 12,8 C 0,7 km/h (0 Bft)
28/10/2011 07:35 12,8 C 91 % 1016,4 hPa 0,0 mm 0,0 km/h (0 Bft) S-SE 157 0 min 0 W/m 11,4 C 12,8 C 3,6 km/h (1 Bft)
28/10/2011 07:40 12,8 C 91 % 1016,5 hPa 0,0 mm 2,2 km/h (1 Bft) S-SE 157 0 min 0 W/m 11,4 C 12,8 C 3,6 km/h (1 Bft)
28/10/2011 07:45 12,8 C 91 % 1017,5 hPa 0,0 mm 2,2 km/h (1 Bft) N 360 0 min 0 W/m 11,4 C 12,8 C 2,2 km/h (1 Bft)
28/10/2011 07:50 12,8 C 91 % 1017,5 hPa 0,0 mm 0,0 km/h (0 Bft) S-SE 157 0 min 0 W/m 11,4 C 12,8 C 0,0 km/h (0 Bft)
28/10/2011 07:55 12,8 C 91 % 1017,5 hPa 0,0 mm 2,2 km/h (1 Bft) S-SE 157 0 min 0 W/m 11,4 C 12,8 C 4,0 km/h (1 Bft)
28/10/2011 08:00 12,8 C 91 % 1017,5 hPa 0,0 mm 0,0 km/h (0 Bft) S-SE 157 0 min 0 W/m 11,4 C 12,8 C 0,0 km/h (0 Bft)
28/10/2011 08:05 12,7 C 91 % 1017,6 hPa 0,0 mm 0,0 km/h (0 Bft) S-SE 157 0 min 0 W/m 11,3 C 12,7 C 0,0 km/h (0 Bft)
28/10/2011 08:10 12,6 C 91 % 1017,7 hPa 0,0 mm 0,0 km/h (0 Bft) S-SE 157 0 min 0 W/m 11,2 C 12,6 C 0,0 km/h (0 Bft)
28/10/2011 08:15 12,6 C 91 % 1017,9 hPa 0,0 mm 0,0 km/h (0 Bft) S-SE 157 0 min 0 W/m 11,2 C 12,6 C 3,2 km/h (1 Bft)
28/10/2011 08:20 12,6 C 92 % 1018,0 hPa 0,0 mm 0,0 km/h (0 Bft) SE 135 0 min 0 W/m 11,3 C 12,6 C 0,0 km/h (0 Bft)
28/10/2011 08:25 12,6 C 92 % 1017,9 hPa 0,0 mm 0,0 km/h (0 Bft) SE 135 0 min 0 W/m 11,3 C 12,6 C 0,0 km/h (0 Bft)
28/10/2011 08:30 12,6 C 92 % 1018,0 hPa 0,0 mm 0,0 km/h (0 Bft) SE 135 0 min 0 W/m 11,3 C 12,6 C 0,0 km/h (0 Bft)
28/10/2011 08:35 12,6 C 92 % 1018,2 hPa 0,0 mm 0,0 km/h (0 Bft) SE 135 0 min 0 W/m 11,3 C 12,6 C 3,2 km/h (1 Bft)
28/10/2011 08:40 12,6 C 92 % 1018,2 hPa 0,0 mm 0,0 km/h (0 Bft) SE 135 0 min 0 W/m 11,3 C 12,6 C 0,0 km/h (0 Bft)
28/10/2011 08:45 12,6 C 92 % 1018,3 hPa 0,0 mm 1,4 km/h (1 Bft) SE 135 0 min 0 W/m 11,3 C 12,6 C 4,3 km/h (1 Bft)
28/10/2011 08:50 12,6 C 92 % 1018,4 hPa 0,0 mm 0,0 km/h (0 Bft) SE 135 0 min 0 W/m 11,3 C 12,6 C 0,0 km/h (0 Bft)
28/10/2011 08:55 12,6 C 92 % 1018,5 hPa 0,0 mm 0,0 km/h (0 Bft) SE 135 0 min 0 W/m 11,3 C 12,6 C 0,0 km/h (0 Bft)
28/10/2011 09:00 12,8 C 92 % 1018,7 hPa 0,0 mm 0,4 km/h (0 Bft) S-SE 157 0 min 0 W/m 11,5 C 12,8 C 4,0 km/h (1 Bft)
28/10/2011 09:05 12,8 C 92 % 1018,8 hPa 0,0 mm 0,0 km/h (0 Bft) S-SE 157 0 min 0 W/m 11,5 C 12,8 C 2,9 km/h (1 Bft)
28/10/2011 09:10 12,8 C 92 % 1018,9 hPa 0,0 mm 0,0 km/h (0 Bft) S-SE 157 0 min 0 W/m 11,5 C 12,8 C 0,0 km/h (0 Bft)
28/10/2011 09:15 12,8 C 92 % 1019,0 hPa 0,0 mm 0,0 km/h (0 Bft) S-SE 157 0 min 0 W/m 11,5 C 12,8 C 3,2 km/h (1 Bft)
28/10/2011 09:20 12,8 C 92 % 1019,1 hPa 0,0 mm 0,0 km/h (0 Bft) S-SE 157 0 min 0 W/m 11,5 C 12,8 C 3,2 km/h (1 Bft)
28/10/2011 09:25 12,8 C 92 % 1019,1 hPa 0,0 mm 0,4 km/h (0 Bft) S-SE 157 0 min 0 W/m 11,5 C 12,8 C 3,2 km/h (1 Bft)
28/10/2011 09:30 12,8 C 92 % 1019,2 hPa 0,0 mm 0,4 km/h (0 Bft) S-SE 157 0 min 0 W/m 11,5 C 12,8 C 2,9 km/h (1 Bft)
28/10/2011 09:35 12,9 C 92 % 1019,2 hPa 0,0 mm 0,0 km/h (0 Bft) S-SE 157 0 min 0 W/m 11,6 C 12,9 C 0,0 km/h (0 Bft)
28/10/2011 09:40 12,9 C 92 % 1019,3 hPa 0,0 mm 0,0 km/h (0 Bft) S-SE 157 0 min 0 W/m 11,6 C 12,9 C 0,0 km/h (0 Bft)
28/10/2011 09:45 12,9 C 92 % 1019,4 hPa 0,0 mm 0,0 km/h (0 Bft) S-SE 157 0 min 0 W/m 11,6 C 12,9 C 0,0 km/h (0 Bft)
28/10/2011 09:50 12,9 C 92 % 1019,4 hPa 0,0 mm 0,7 km/h (0 Bft) S-SE 157 0 min 0 W/m 11,6 C 12,9 C 3,6 km/h (1 Bft)
28/10/2011 09:55 12,9 C 92 % 1019,5 hPa 0,0 mm 0,0 km/h (0 Bft) S-SE 157 0 min 0 W/m 11,6 C 12,9 C 0,0 km/h (0 Bft)
28/10/2011 10:00 12,9 C 92 % 1019,7 hPa 0,0 mm 0,4 km/h (0 Bft) S-SE 157 0 min 0 W/m 11,6 C 12,9 C 4,0 km/h (1 Bft)
28/10/2011 10:05 13,1 C 92 % 1019,8 hPa 0,0 mm 0,0 km/h (0 Bft) S-SE 157 0 min 0 W/m 11,8 C 13,1 C 0,0 km/h (0 Bft)
28/10/2011 10:10 13,1 C 92 % 1019,8 hPa 0,0 mm 0,0 km/h (0 Bft) S-SE 157 0 min 0 W/m 11,8 C 13,1 C 0,0 km/h (0 Bft)
28/10/2011 10:15 13,1 C 92 % 1019,9 hPa 0,0 mm 0,0 km/h (0 Bft) S-SE 157 0 min 0 W/m 11,8 C 13,1 C 0,0 km/h (0 Bft)
28/10/2011 10:20 13,1 C 92 % 1019,9 hPa 0,0 mm 0,0 km/h (0 Bft) S-SE 157 0 min 0 W/m 11,8 C 13,1 C 0,0 km/h (0 Bft)
28/10/2011 10:25 13,1 C 92 % 1020,0 hPa 0,0 mm 0,0 km/h (0 Bft) S-SE 157 0 min 0 W/m 11,8 C 13,1 C 0,0 km/h (0 Bft)
28/10/2011 10:30 13,1 C 92 % 1020,0 hPa 0,0 mm 0,0 km/h (0 Bft) S-SE 157 0 min 0 W/m 11,8 C 13,1 C 0,0 km/h (0 Bft)
28/10/2011 10:35 13,1 C 92 % 1020,1 hPa 0,0 mm 0,0 km/h (0 Bft) S-SE 157 0 min 0 W/m 11,8 C 13,1 C 0,0 km/h (0 Bft)
28/10/2011 10:40 13,2 C 92 % 1020,1 hPa 0,3 mm 0,0 km/h (0 Bft) S 180 0 min 0 W/m 11,9 C 13,2 C 2,9 km/h (1 Bft)
28/10/2011 10:45 13,2 C 92 % 1020,2 hPa 0,0 mm 0,0 km/h (0 Bft) S 180 0 min 0 W/m 11,9 C 13,2 C 0,0 km/h (0 Bft)
28/10/2011 10:50 13,3 C 92 % 1020,3 hPa 0,0 mm 0,0 km/h (0 Bft) O-SO 247 0 min 0 W/m 12,0 C 13,3 C 0,0 km/h (0 Bft)
28/10/2011 10:55 13,4 C 92 % 1020,3 hPa 0,0 mm 0,0 km/h (0 Bft) O-SO 247 0 min 0 W/m 12,1 C 13,4 C 0,0 km/h (0 Bft)
28/10/2011 11:00 13,4 C 92 % 1020,2 hPa 0,0 mm 0,0 km/h (0 Bft) O-SO 247 0 min 0 W/m 12,1 C 13,4 C 0,0 km/h (0 Bft)
28/10/2011 11:05 13,5 C 93 % 1020,2 hPa 0,0 mm 0,0 km/h (0 Bft) O-SO 247 0 min 0 W/m 12,4 C 13,5 C 0,0 km/h (0 Bft)
28/10/2011 11:10 13,7 C 93 % 1020,4 hPa 0,0 mm 0,0 km/h (0 Bft) O-SO 247 0 min 0 W/m 12,6 C 13,7 C 0,0 km/h (0 Bft)
28/10/2011 11:15 13,8 C 93 % 1020,7 hPa 0,0 mm 0,0 km/h (0 Bft) O-SO 247 0 min 0 W/m 12,7 C 13,8 C 0,0 km/h (0 Bft)
28/10/2011 11:20 13,8 C 93 % 1020,8 hPa 0,0 mm 0,4 km/h (0 Bft) O-SO 247 0 min 0 W/m 12,7 C 13,8 C 3,2 km/h (1 Bft)
28/10/2011 11:25 13,9 C 93 % 1020,7 hPa 0,0 mm 0,4 km/h (0 Bft) S-SO 202 0 min 0 W/m 12,8 C 13,9 C 3,6 km/h (1 Bft)
28/10/2011 11:30 13,9 C 93 % 1020,8 hPa 0,0 mm 0,0 km/h (0 Bft) S-SO 202 0 min 0 W/m 12,8 C 13,9 C 0,0 km/h (0 Bft)
28/10/2011 11:35 14,1 C 93 % 1020,7 hPa 0,0 mm 0,0 km/h (0 Bft) S-SO 202 0 min 0 W/m 13,0 C 14,1 C 0,0 km/h (0 Bft)
28/10/2011 11:40 14,2 C 93 % 1020,9 hPa 0,0 mm 0,0 km/h (0 Bft) S-SO 202 0 min 0 W/m 13,1 C 14,2 C 0,0 km/h (0 Bft)
28/10/2011 11:45 14,3 C 93 % 1020,9 hPa 0,0 mm 0,0 km/h (0 Bft) S-SO 202 0 min 0 W/m 13,2 C 14,3 C 0,0 km/h (0 Bft)
28/10/2011 11:50 14,4 C 93 % 1021,0 hPa 0,0 mm 0,0 km/h (0 Bft) S-SO 202 0 min 0 W/m 13,3 C 14,4 C 0,0 km/h (0 Bft)
28/10/2011 11:55 14,5 C 93 % 1021,0 hPa 0,0 mm 0,0 km/h (0 Bft) S-SO 202 0 min 0 W/m 13,4 C 14,5 C 0,0 km/h (0 Bft)
28/10/2011 12:00 14,6 C 93 % 1021,1 hPa 0,0 mm 0,0 km/h (0 Bft) S-SO 202 0 min 0 W/m 13,5 C 14,6 C 0,0 km/h (0 Bft)
28/10/2011 12:05 14,6 C 93 % 1021,1 hPa 0,0 mm 0,0 km/h (0 Bft) S-SO 202 0 min 0 W/m 13,5 C 14,6 C 0,0 km/h (0 Bft)
28/10/2011 12:10 14,8 C 93 % 1021,2 hPa 0,0 mm 0,0 km/h (0 Bft) S-SO 202 0 min 0 W/m 13,7 C 14,8 C 0,0 km/h (0 Bft)
28/10/2011 12:15 14,8 C 93 % 1021,3 hPa 0,0 mm 0,0 km/h (0 Bft) S-SO 202 0 min 0 W/m 13,7 C 14,8 C 0,0 km/h (0 Bft)
28/10/2011 12:20 14,9 C 92 % 1021,3 hPa 0,0 mm 0,4 km/h (0 Bft) S-SO 202 0 min 0 W/m 13,6 C 14,9 C 0,4 km/h (0 Bft)
28/10/2011 12:25 14,9 C 92 % 1021,4 hPa 0,0 mm 2,2 km/h (1 Bft) S 180 0 min 0 W/m 13,6 C 14,9 C 6,5 km/h (2 Bft)
28/10/2011 12:30 15,1 C 92 % 1021,4 hPa 0,0 mm 2,2 km/h (1 Bft) S-SO 202 0 min 0 W/m 13,8 C 15,1 C 4,0 km/h (1 Bft)
28/10/2011 12:35 15,2 C 91 % 1021,5 hPa 0,0 mm 1,4 km/h (1 Bft) S-SO 202 0 min 0 W/m 13,7 C 15,2 C 4,3 km/h (1 Bft)
28/10/2011 12:40 15,4 C 92 % 1021,6 hPa 0,0 mm 0,4 km/h (0 Bft) S-SO 202 0 min 0 W/m 14,1 C 15,4 C 0,4 km/h (0 Bft)
28/10/2011 12:45 15,5 C 92 % 1021,6 hPa 0,0 mm 0,4 km/h (0 Bft) N 360 0 min 0 W/m 14,2 C 15,5 C 0,4 km/h (0 Bft)
28/10/2011 12:50 15,6 C 91 % 1021,6 hPa 0,0 mm 0,0 km/h (0 Bft) S-SE 157 0 min 0 W/m 14,1 C 15,6 C 0,0 km/h (0 Bft)
28/10/2011 12:55 15,8 C 90 % 1021,6 hPa 0,0 mm 3,2 km/h (1 Bft) S-SO 202 0 min 0 W/m 14,2 C 15,8 C 5,8 km/h (2 Bft)
28/10/2011 13:00 15,8 C 90 % 1021,6 hPa 0,0 mm 2,5 km/h (1 Bft) S-SO 202 0 min 0 W/m 14,2 C 15,8 C 6,5 km/h (2 Bft)
28/10/2011 13:05 15,8 C 89 % 1021,6 hPa 0,0 mm 1,4 km/h (1 Bft) S-SO 202 0 min 0 W/m 14,0 C 15,8 C 2,9 km/h (1 Bft)
28/10/2011 13:10 15,9 C 88 % 1021,6 hPa 0,0 mm 0,4 km/h (0 Bft) SO 225 0 min 0 W/m 13,9 C 15,9 C 3,2 km/h (1 Bft)
28/10/2011 13:15 15,9 C 88 % 1021,7 hPa 0,0 mm 1,1 km/h (1 Bft) S-SO 202 0 min 0 W/m 13,9 C 15,9 C 2,9 km/h (1 Bft)
28/10/2011 13:20 15,9 C 87 % 1021,8 hPa 0,0 mm 4,0 km/h (1 Bft) S 180 0 min 0 W/m 13,7 C 15,9 C 8,6 km/h (2 Bft)
28/10/2011 13:25 16,0 C 87 % 1021,7 hPa 0,0 mm 0,0 km/h (0 Bft) S-SE 157 0 min 0 W/m 13,8 C 16,0 C 0,0 km/h (0 Bft)
28/10/2011 13:30 16,1 C 87 % 1021,7 hPa 0,0 mm 0,0 km/h (0 Bft) S-SE 157 0 min 0 W/m 13,9 C 16,1 C 0,0 km/h (0 Bft)
28/10/2011 13:35 16,2 C 87 % 1021,6 hPa 0,0 mm 0,4 km/h (0 Bft) SO 225 0 min 0 W/m 14,0 C 16,2 C 3,2 km/h (1 Bft)
28/10/2011 13:40 16,4 C 87 % 1021,6 hPa 0,0 mm 0,0 km/h (0 Bft) S-SO 202 0 min 0 W/m 14,2 C 16,4 C 3,2 km/h (1 Bft)
28/10/2011 13:45 16,6 C 86 % 1021,6 hPa 0,0 mm 4,0 km/h (1 Bft) SE 135 0 min 0 W/m 14,2 C 16,6 C 5,8 km/h (2 Bft)
28/10/2011 13:50 16,8 C 86 % 1021,6 hPa 0,0 mm 0,0 km/h (0 Bft) S-SE 157 0 min 0 W/m 14,4 C 16,8 C 0,0 km/h (0 Bft)
28/10/2011 13:55 16,9 C 84 % 1021,5 hPa 0,0 mm 0,0 km/h (0 Bft) S-SO 202 0 min 0 W/m 14,2 C 16,9 C 0,0 km/h (0 Bft)
28/10/2011 14:00 17,1 C 84 % 1021,5 hPa 0,0 mm 0,7 km/h (0 Bft) S-SO 202 0 min 0 W/m 14,4 C 17,1 C 4,0 km/h (1 Bft)
28/10/2011 14:05 17,4 C 83 % 1021,5 hPa 0,0 mm 1,8 km/h (1 Bft) S 180 0 min 0 W/m 14,5 C 17,4 C 4,0 km/h (1 Bft)
28/10/2011 14:10 17,7 C 81 % 1021,6 hPa 0,0 mm 2,2 km/h (1 Bft) SO 225 0 min 0 W/m 14,4 C 17,7 C 3,6 km/h (1 Bft)
28/10/2011 14:15 17,8 C 80 % 1021,5 hPa 0,0 mm 0,4 km/h (0 Bft) SO 225 0 min 0 W/m 14,3 C 17,8 C 0,4 km/h (0 Bft)
28/10/2011 14:20 18,2 C 81 % 1021,7 hPa 0,0 mm 3,2 km/h (1 Bft) S 180 0 min 0 W/m 14,9 C 18,2 C 3,2 km/h (1 Bft)
28/10/2011 14:25 18,3 C 80 % 1021,8 hPa 0,0 mm 2,2 km/h (1 Bft) S-SO 202 0 min 0 W/m 14,8 C 18,3 C 4,3 km/h (1 Bft)
28/10/2011 14:30 18,4 C 79 % 1021,7 hPa 0,0 mm 0,0 km/h (0 Bft) S-SO 202 0 min 0 W/m 14,7 C 18,4 C 0,0 km/h (0 Bft)
28/10/2011 14:35 18,4 C 78 % 1021,7 hPa 0,0 mm 0,0 km/h (0 Bft) S 180 0 min 0 W/m 14,5 C 18,4 C 0,0 km/h (0 Bft)
28/10/2011 14:40 18,4 C 78 % 1021,6 hPa 0,0 mm 0,0 km/h (0 Bft) S 180 0 min 0 W/m 14,5 C 18,4 C 0,0 km/h (0 Bft)
28/10/2011 14:45 18,4 C 77 % 1021,6 hPa 0,0 mm 0,0 km/h (0 Bft) S 180 0 min 0 W/m 14,3 C 18,4 C 0,0 km/h (0 Bft)
28/10/2011 14:50 18,3 C 78 % 1021,5 hPa 0,0 mm 0,0 km/h (0 Bft) S 180 0 min 0 W/m 14,4 C 18,3 C 1,4 km/h (1 Bft)
28/10/2011 14:55 18,2 C 78 % 1021,5 hPa 0,0 mm 2,2 km/h (1 Bft) S-SO 202 0 min 0 W/m 14,3 C 18,2 C 4,0 km/h (1 Bft)
28/10/2011 15:00 18,1 C 78 % 1021,5 hPa 0,0 mm 0,0 km/h (0 Bft) S-SO 202 0 min 0 W/m 14,2 C 18,1 C 0,0 km/h (0 Bft)
28/10/2011 15:05 17,9 C 78 % 1021,6 hPa 0,0 mm 0,0 km/h (0 Bft) S-SO 202 0 min 0 W/m 14,0 C 17,9 C 0,0 km/h (0 Bft)
28/10/2011 15:10 17,9 C 79 % 1021,6 hPa 0,0 mm 0,0 km/h (0 Bft) S-SO 202 0 min 0 W/m 14,2 C 17,9 C 0,0 km/h (0 Bft)
28/10/2011 15:15 17,8 C 79 % 1021,5 hPa 0,0 mm 2,2 km/h (1 Bft) S-SO 202 0 min 0 W/m 14,1 C 17,8 C 3,2 km/h (1 Bft)
28/10/2011 15:20 17,7 C 79 % 1021,5 hPa 0,0 mm 0,0 km/h (0 Bft) S 180 0 min 0 W/m 14,0 C 17,7 C 0,0 km/h (0 Bft)
28/10/2011 15:25 17,5 C 79 % 1021,4 hPa 0,0 mm 0,4 km/h (0 Bft) S 180 0 min 0 W/m 13,8 C 17,5 C 0,4 km/h (0 Bft)
28/10/2011 15:30 17,4 C 79 % 1021,5 hPa 0,0 mm 0,4 km/h (0 Bft) S-SE 157 0 min 0 W/m 13,7 C 17,4 C 2,9 km/h (1 Bft)
28/10/2011 15:35 17,3 C 79 % 1021,5 hPa 0,0 mm 0,0 km/h (0 Bft) S-SE 157 0 min 0 W/m 13,6 C 17,3 C 2,9 km/h (1 Bft)
28/10/2011 15:40 17,3 C 79 % 1021,5 hPa 0,0 mm 0,0 km/h (0 Bft) S-SE 157 0 min 0 W/m 13,6 C 17,3 C 0,0 km/h (0 Bft)
28/10/2011 15:45 17,3 C 80 % 1021,5 hPa 0,0 mm 0,4 km/h (0 Bft) S-SE 157 0 min 0 W/m 13,8 C 17,3 C 0,4 km/h (0 Bft)
28/10/2011 15:50 17,2 C 80 % 1021,5 hPa 0,0 mm 0,0 km/h (0 Bft) S-SE 157 0 min 0 W/m 13,7 C 17,2 C 2,9 km/h (1 Bft)
28/10/2011 15:55 17,2 C 80 % 1021,5 hPa 0,0 mm 0,0 km/h (0 Bft) S 180 0 min 0 W/m 13,7 C 17,2 C 0,0 km/h (0 Bft)
28/10/2011 16:00 17,2 C 79 % 1020,5 hPa 0,0 mm 0,4 km/h (0 Bft) S 180 0 min 0 W/m 13,5 C 17,2 C 0,4 km/h (0 Bft)
28/10/2011 16:05 17,2 C 80 % 1020,4 hPa 0,0 mm 1,4 km/h (1 Bft) S 180 0 min 0 W/m 13,7 C 17,2 C 2,9 km/h (1 Bft)
28/10/2011 16:10 17,2 C 81 % 1020,5 hPa 0,0 mm 1,4 km/h (1 Bft) S-SO 202 0 min 0 W/m 13,9 C 17,2 C 3,2 km/h (1 Bft)
28/10/2011 16:15 17,3 C 80 % 1020,6 hPa 0,0 mm 2,2 km/h (1 Bft) S-SO 202 0 min 0 W/m 13,8 C 17,3 C 3,6 km/h (1 Bft)
28/10/2011 16:20 17,3 C 80 % 1020,6 hPa 0,0 mm 1,1 km/h (1 Bft) S-SO 202 0 min 0 W/m 13,8 C 17,3 C 3,6 km/h (1 Bft)
28/10/2011 16:25 17,4 C 80 % 1020,7 hPa 0,0 mm 0,7 km/h (0 Bft) S-SO 202 0 min 0 W/m 13,9 C 17,4 C 3,6 km/h (1 Bft)
28/10/2011 16:30 17,5 C 79 % 1020,7 hPa 0,0 mm 2,5 km/h (1 Bft) S 180 0 min 0 W/m 13,8 C 17,5 C 4,0 km/h (1 Bft)
28/10/2011 16:35 17,6 C 78 % 1020,7 hPa 0,0 mm 1,4 km/h (1 Bft) S-SO 202 0 min 0 W/m 13,7 C 17,6 C 1,4 km/h (1 Bft)
28/10/2011 16:40 17,6 C 77 % 1020,6 hPa 0,0 mm 2,2 km/h (1 Bft) S 180 0 min 0 W/m 13,5 C 17,6 C 4,0 km/h (1 Bft)
28/10/2011 16:45 17,5 C 77 % 1020,6 hPa 0,0 mm 0,0 km/h (0 Bft) S-SO 202 0 min 0 W/m 13,4 C 17,5 C 4,0 km/h (1 Bft)
28/10/2011 16:50 17,6 C 77 % 1020,7 hPa 0,0 mm 0,4 km/h (0 Bft) S 180 0 min 0 W/m 13,5 C 17,6 C 2,9 km/h (1 Bft)
28/10/2011 16:55 17,6 C 77 % 1020,8 hPa 0,0 mm 0,0 km/h (0 Bft) S-SO 202 0 min 0 W/m 13,5 C 17,6 C 0,0 km/h (0 Bft)
28/10/2011 17:00 17,5 C 77 % 1020,8 hPa 0,0 mm 0,0 km/h (0 Bft) S-SO 202 0 min 0 W/m 13,4 C 17,5 C 0,0 km/h (0 Bft)
28/10/2011 17:05 17,5 C 77 % 1020,8 hPa 0,0 mm 0,0 km/h (0 Bft) S-SO 202 0 min 0 W/m 13,4 C 17,5 C 2,9 km/h (1 Bft)
28/10/2011 17:10 17,6 C 75 % 1020,8 hPa 0,0 mm 0,0 km/h (0 Bft) S-SO 202 0 min 0 W/m 13,1 C 17,6 C 2,9 km/h (1 Bft)
28/10/2011 17:15 17,6 C 76 % 1020,8 hPa 0,0 mm 0,0 km/h (0 Bft) S-SO 202 0 min 0 W/m 13,3 C 17,6 C 0,0 km/h (0 Bft)
28/10/2011 17:20 17,6 C 76 % 1020,8 hPa 0,0 mm 0,0 km/h (0 Bft) S-SO 202 0 min 0 W/m 13,3 C 17,6 C 0,0 km/h (0 Bft)
28/10/2011 17:25 17,7 C 76 % 1020,8 hPa 0,0 mm 0,0 km/h (0 Bft) S-SO 202 0 min 0 W/m 13,4 C 17,7 C 0,0 km/h (0 Bft)
28/10/2011 17:30 17,8 C 76 % 1020,8 hPa 0,0 mm 0,0 km/h (0 Bft) S-SO 202 0 min 0 W/m 13,5 C 17,8 C 0,0 km/h (0 Bft)
28/10/2011 17:35 17,8 C 76 % 1020,8 hPa 0,0 mm 0,0 km/h (0 Bft) S-SO 202 0 min 0 W/m 13,5 C 17,8 C 0,0 km/h (0 Bft)
28/10/2011 17:40 17,6 C 76 % 1020,8 hPa 0,0 mm 0,0 km/h (0 Bft) S-SO 202 0 min 0 W/m 13,3 C 17,6 C 0,0 km/h (0 Bft)
28/10/2011 17:45 17,5 C 76 % 1020,9 hPa 0,0 mm 0,0 km/h (0 Bft) S-SO 202 0 min 0 W/m 13,2 C 17,5 C 0,0 km/h (0 Bft)
28/10/2011 17:50 17,4 C 77 % 1020,9 hPa 0,0 mm 0,0 km/h (0 Bft) S-SO 202 0 min 0 W/m 13,3 C 17,4 C 0,0 km/h (0 Bft)
28/10/2011 17:55 17,2 C 77 % 1020,9 hPa 0,0 mm 0,0 km/h (0 Bft) S-SO 202 0 min 0 W/m 13,1 C 17,2 C 0,0 km/h (0 Bft)
28/10/2011 18:00 17,1 C 77 % 1020,9 hPa 0,0 mm 0,0 km/h (0 Bft) S-SO 202 0 min 0 W/m 13,0 C 17,1 C 0,0 km/h (0 Bft)
28/10/2011 18:05 16,8 C 78 % 1020,9 hPa 0,0 mm 0,0 km/h (0 Bft) S-SO 202 0 min 0 W/m 12,9 C 16,8 C 0,0 km/h (0 Bft)
28/10/2011 18:10 16,7 C 78 % 1020,9 hPa 0,0 mm 0,0 km/h (0 Bft) S-SO 202 0 min 0 W/m 12,8 C 16,7 C 0,0 km/h (0 Bft)
28/10/2011 18:15 16,6 C 79 % 1021,0 hPa 0,0 mm 0,0 km/h (0 Bft) S-SO 202 0 min 0 W/m 12,9 C 16,6 C 0,0 km/h (0 Bft)
28/10/2011 18:20 16,4 C 79 % 1021,0 hPa 0,0 mm 0,0 km/h (0 Bft) S-SO 202 0 min 0 W/m 12,7 C 16,4 C 0,0 km/h (0 Bft)
28/10/2011 18:25 16,3 C 79 % 1021,0 hPa 0,0 mm 0,0 km/h (0 Bft) S-SO 202 0 min 0 W/m 12,6 C 16,3 C 0,0 km/h (0 Bft)
28/10/2011 18:30 16,3 C 80 % 1021,1 hPa 0,0 mm 0,0 km/h (0 Bft) S-SO 202 0 min 0 W/m 12,8 C 16,3 C 0,0 km/h (0 Bft)
28/10/2011 18:35 16,1 C 80 % 1021,3 hPa 0,0 mm 0,0 km/h (0 Bft) S-SO 202 0 min 0 W/m 12,6 C 16,1 C 0,0 km/h (0 Bft)
28/10/2011 18:40 16,1 C 81 % 1021,3 hPa 0,0 mm 0,0 km/h (0 Bft) N 360 0 min 0 W/m 12,8 C 16,1 C 0,0 km/h (0 Bft)
28/10/2011 18:45 16,0 C 82 % 1021,2 hPa 0,0 mm 0,0 km/h (0 Bft) S-SO 202 0 min 0 W/m 12,9 C 16,0 C 0,0 km/h (0 Bft)
28/10/2011 18:50 15,9 C 81 % 1021,4 hPa 0,0 mm 0,0 km/h (0 Bft) S-SO 202 0 min 0 W/m 12,6 C 15,9 C 0,0 km/h (0 Bft)
28/10/2011 18:55 15,8 C 81 % 1021,3 hPa 0,0 mm 0,0 km/h (0 Bft) S-SO 202 0 min 0 W/m 12,5 C 15,8 C 0,0 km/h (0 Bft)
28/10/2011 19:00 15,8 C 82 % 1021,4 hPa 0,0 mm 0,0 km/h (0 Bft) S-SO 202 0 min 0 W/m 12,7 C 15,8 C 0,0 km/h (0 Bft)
28/10/2011 19:05 15,7 C 82 % 1021,6 hPa 0,0 mm 0,0 km/h (0 Bft) S-SO 202 0 min 0 W/m 12,6 C 15,7 C 0,0 km/h (0 Bft)
28/10/2011 19:10 15,6 C 83 % 1021,4 hPa 0,0 mm 0,0 km/h (0 Bft) S-SO 202 0 min 0 W/m 12,7 C 15,6 C 0,0 km/h (0 Bft)
28/10/2011 19:15 15,6 C 83 % 1021,5 hPa 0,0 mm 0,0 km/h (0 Bft) S-SO 202 0 min 0 W/m 12,7 C 15,6 C 0,0 km/h (0 Bft)
28/10/2011 19:20 15,5 C 83 % 1021,6 hPa 0,0 mm 0,0 km/h (0 Bft) S-SO 202 0 min 0 W/m 12,6 C 15,5 C 0,0 km/h (0 Bft)
28/10/2011 19:25 15,5 C 83 % 1021,6 hPa 0,0 mm 0,0 km/h (0 Bft) S-SO 202 0 min 0 W/m 12,6 C 15,5 C 0,0 km/h (0 Bft)
28/10/2011 19:30 15,5 C 83 % 1021,7 hPa 0,0 mm 0,0 km/h (0 Bft) S-SO 202 0 min 0 W/m 12,6 C 15,5 C 0,0 km/h (0 Bft)
28/10/2011 19:35 15,4 C 83 % 1021,7 hPa 0,0 mm 0,0 km/h (0 Bft) S-SO 202 0 min 0 W/m 12,5 C 15,4 C 0,0 km/h (0 Bft)
28/10/2011 19:40 15,4 C 84 % 1021,8 hPa 0,0 mm 1,1 km/h (1 Bft) S-SE 157 0 min 0 W/m 12,7 C 15,4 C 4,3 km/h (1 Bft)
28/10/2011 19:45 15,4 C 84 % 1021,8 hPa 0,0 mm 0,0 km/h (0 Bft) S-SE 157 0 min 0 W/m 12,7 C 15,4 C 0,0 km/h (0 Bft)
28/10/2011 19:50 15,4 C 83 % 1021,9 hPa 0,0 mm 0,4 km/h (0 Bft) S-SE 157 0 min 0 W/m 12,5 C 15,4 C 0,4 km/h (0 Bft)
28/10/2011 19:55 15,5 C 83 % 1021,9 hPa 0,0 mm 0,0 km/h (0 Bft) S-SE 157 0 min 0 W/m 12,6 C 15,5 C 0,0 km/h (0 Bft)
28/10/2011 20:00 15,4 C 83 % 1021,9 hPa 0,0 mm 0,0 km/h (0 Bft) S-SE 157 0 min 0 W/m 12,5 C 15,4 C 0,0 km/h (0 Bft)
28/10/2011 20:05 15,4 C 84 % 1021,9 hPa 0,0 mm 0,0 km/h (0 Bft) S-SE 157 0 min 0 W/m 12,7 C 15,4 C 0,0 km/h (0 Bft)
28/10/2011 20:10 15,4 C 84 % 1022,0 hPa 0,0 mm 0,0 km/h (0 Bft) S-SE 157 0 min 0 W/m 12,7 C 15,4 C 0,0 km/h (0 Bft)
28/10/2011 20:15 15,3 C 84 % 1022,0 hPa 0,0 mm 0,0 km/h (0 Bft) S-SE 157 0 min 0 W/m 12,6 C 15,3 C 0,0 km/h (0 Bft)
28/10/2011 20:20 15,3 C 84 % 1022,0 hPa 0,0 mm 0,0 km/h (0 Bft) S-SE 157 0 min 0 W/m 12,6 C 15,3 C 0,0 km/h (0 Bft)
28/10/2011 20:25 15,3 C 84 % 1022,1 hPa 0,0 mm 0,0 km/h (0 Bft) S-SE 157 0 min 0 W/m 12,6 C 15,3 C 0,0 km/h (0 Bft)
28/10/2011 20:30 15,2 C 85 % 1022,1 hPa 0,0 mm 0,0 km/h (0 Bft) S-SE 157 0 min 0 W/m 12,7 C 15,2 C 0,0 km/h (0 Bft)
28/10/2011 20:35 15,2 C 85 % 1022,0 hPa 0,0 mm 0,0 km/h (0 Bft) S-SE 157 0 min 0 W/m 12,7 C 15,2 C 0,0 km/h (0 Bft)
28/10/2011 20:40 15,2 C 85 % 1022,0 hPa 0,0 mm 0,0 km/h (0 Bft) S-SE 157 0 min 0 W/m 12,7 C 15,2 C 0,0 km/h (0 Bft)
28/10/2011 20:45 15,1 C 85 % 1022,1 hPa 0,0 mm 0,0 km/h (0 Bft) S-SE 157 0 min 0 W/m 12,6 C 15,1 C 0,0 km/h (0 Bft)
28/10/2011 20:50 15,1 C 85 % 1022,1 hPa 0,0 mm 0,0 km/h (0 Bft) S-SE 157 0 min 0 W/m 12,6 C 15,1 C 0,0 km/h (0 Bft)
28/10/2011 20:55 15,1 C 85 % 1022,1 hPa 0,0 mm 0,0 km/h (0 Bft) S-SE 157 0 min 0 W/m 12,6 C 15,1 C 0,0 km/h (0 Bft)
28/10/2011 21:00 15,1 C 85 % 1022,3 hPa 0,0 mm 0,0 km/h (0 Bft) S-SE 157 0 min 0 W/m 12,6 C 15,1 C 0,0 km/h (0 Bft)
28/10/2011 21:05 14,9 C 85 % 1022,3 hPa 0,0 mm 0,0 km/h (0 Bft) S-SE 157 0 min 0 W/m 12,4 C 14,9 C 0,0 km/h (0 Bft)
28/10/2011 21:10 14,9 C 85 % 1022,3 hPa 0,0 mm 0,0 km/h (0 Bft) S-SE 157 0 min 0 W/m 12,4 C 14,9 C 0,0 km/h (0 Bft)
28/10/2011 21:15 14,9 C 86 % 1022,3 hPa 0,0 mm 0,0 km/h (0 Bft) S-SE 157 0 min 0 W/m 12,6 C 14,9 C 0,0 km/h (0 Bft)
28/10/2011 21:20 14,9 C 86 % 1022,4 hPa 0,0 mm 0,0 km/h (0 Bft) S-SE 157 0 min 0 W/m 12,6 C 14,9 C 0,0 km/h (0 Bft)
28/10/2011 21:25 14,8 C 86 % 1022,4 hPa 0,0 mm 0,0 km/h (0 Bft) S-SE 157 0 min 0 W/m 12,5 C 14,8 C 0,0 km/h (0 Bft)
28/10/2011 21:30 14,8 C 86 % 1022,4 hPa 0,0 mm 0,0 km/h (0 Bft) S-SE 157 0 min 0 W/m 12,5 C 14,8 C 0,0 km/h (0 Bft)
28/10/2011 21:35 14,8 C 86 % 1022,5 hPa 0,0 mm 0,0 km/h (0 Bft) S-SE 157 0 min 0 W/m 12,5 C 14,8 C 0,0 km/h (0 Bft)
28/10/2011 21:40 14,8 C 87 % 1022,5 hPa 0,0 mm 0,0 km/h (0 Bft) S-SE 157 0 min 0 W/m 12,7 C 14,8 C 0,0 km/h (0 Bft)
28/10/2011 21:45 14,8 C 87 % 1022,6 hPa 0,0 mm 0,0 km/h (0 Bft) S-SE 157 0 min 0 W/m 12,7 C 14,8 C 0,0 km/h (0 Bft)
28/10/2011 21:50 14,8 C 86 % 1022,6 hPa 0,0 mm 0,0 km/h (0 Bft) S-SE 157 0 min 0 W/m 12,5 C 14,8 C 0,0 km/h (0 Bft)
28/10/2011 21:55 14,6 C 87 % 1022,6 hPa 0,0 mm 0,0 km/h (0 Bft) S-SE 157 0 min 0 W/m 12,5 C 14,6 C 0,0 km/h (0 Bft)
28/10/2011 22:00 14,6 C 87 % 1022,6 hPa 0,0 mm 0,0 km/h (0 Bft) S-SE 157 0 min 0 W/m 12,5 C 14,6 C 0,0 km/h (0 Bft)
28/10/2011 22:05 14,6 C 87 % 1022,7 hPa 0,0 mm 0,0 km/h (0 Bft) S-SE 157 0 min 0 W/m 12,5 C 14,6 C 0,0 km/h (0 Bft)
28/10/2011 22:10 14,6 C 87 % 1022,7 hPa 0,0 mm 0,0 km/h (0 Bft) S-SE 157 0 min 0 W/m 12,5 C 14,6 C 0,0 km/h (0 Bft)
28/10/2011 22:15 14,6 C 87 % 1022,7 hPa 0,0 mm 0,0 km/h (0 Bft) S-SE 157 0 min 0 W/m 12,5 C 14,6 C 0,0 km/h (0 Bft)
28/10/2011 22:20 14,6 C 87 % 1022,7 hPa 0,0 mm 0,0 km/h (0 Bft) S-SE 157 0 min 0 W/m 12,5 C 14,6 C 0,0 km/h (0 Bft)
28/10/2011 22:25 14,6 C 87 % 1022,7 hPa 0,0 mm 0,0 km/h (0 Bft) S-SE 157 0 min 0 W/m 12,5 C 14,6 C 0,0 km/h (0 Bft)
28/10/2011 22:30 14,6 C 87 % 1022,6 hPa 0,0 mm 0,0 km/h (0 Bft) S-SE 157 0 min 0 W/m 12,5 C 14,6 C 0,0 km/h (0 Bft)
28/10/2011 22:35 14,6 C 87 % 1022,7 hPa 0,0 mm 0,0 km/h (0 Bft) S-SE 157 0 min 0 W/m 12,5 C 14,6 C 0,0 km/h (0 Bft)
28/10/2011 22:40 14,6 C 87 % 1022,6 hPa 0,0 mm 0,0 km/h (0 Bft) S-SE 157 0 min 0 W/m 12,5 C 14,6 C 0,0 km/h (0 Bft)
_ Min-Heure 08:55 17:10 00:00 - 22:40 - - - - 08:15 08:55 22:40
Minimum _ 12,6 C 75 % 1011,4 hPa - 0,0 km/h (0 Bft) - - - - 11,2 C 12,6 C 0,0 km/h (0 Bft)
_ Max-Heure 14:45 12:15 22:35 10:40 01:45 - - 22:40 22:40 14:20 14:45 01:35
Maximum _ 18,4 C 93 % 1022,7 hPa 0,3 mm 13,3 km/h
S (3 Bft)
- - 0 min 0 W/m 14,9 C 18,4 C 18,4 km/h
S-SE (3 Bft)
Moyenne _ 14,8 C 86 % 1018,6 hPa #2,1 mm 1,4 km/h (1 Bft) S-SE - #0 min. 0 W/m 12,5 C 14,8 C 2,6 km/h (1 Bft)
Saint Bonnet de Bellac- Haute Vienne - France